CW4778 Auckland NZ current weather conditions

sailwx.info

Wind from 214 at 4 knots gusting 17

Air temperature 13.9° C
Dewpoint 8.3° C

Last reported at 2014-Jul-23 03:38 UTC.
Time now 2014-Jul-23 05:52 UTC

Location: S 36°52' E 174°44'.
View on Google Maps.

See reports from other nearby stations

  
Tides and Currents Weather Stations Pressure Air Temp Water Temp Dewpoint Dewpoint Depression Visibility Wind Speed Wind Dir Waves Ship Positions
date/time (UTC)wind fromknots sea level pressurealtimeterstation pressurevisibilityair tempwater tempwave heightnotes
2014-Jul-23 04:48 229 2 gusting 6 12.8
2014-Jul-23 04:38 210 3 gusting 8 12.8
2014-Jul-23 04:28 242 1 gusting 10 12.8
2014-Jul-23 04:18 240 2 gusting 10 13.3
2014-Jul-23 04:08 208 2 gusting 11 13.3
2014-Jul-23 03:58 215 5 gusting 14 13.3
2014-Jul-23 03:48 210 5 gusting 13 13.3
2014-Jul-23 03:38 214 4 gusting 17 13.9
2014-Jul-23 03:28 242 4 gusting 13 13.3
2014-Jul-23 03:18 218 4 gusting 14 13.9
2014-Jul-23 03:08 197 2 gusting 11 13.9
2014-Jul-23 02:58 238 5 gusting 12 13.3
2014-Jul-23 02:48 205 3 gusting 17 13.3
2014-Jul-23 02:38 147 4 gusting 13 14.4
2014-Jul-23 02:28 197 6 gusting 15 14.4
2014-Jul-23 02:08 220 9 gusting 20 14.4
2014-Jul-23 01:58 206 6 gusting 15 14.4
2014-Jul-23 01:38 223 6 gusting 22 14.4
2014-Jul-23 01:28 211 5 gusting 19 15.0
2014-Jul-23 01:18 199 4 gusting 19 13.9
2014-Jul-23 01:08 242 5 gusting 14 15.6
2014-Jul-23 00:58 214 5 gusting 17 14.4
2014-Jul-23 00:48 236 2 gusting 17 14.4
2014-Jul-23 00:38 217 8 gusting 20 13.9
2014-Jul-23 00:28 218 4 gusting 19 15.0
2014-Jul-23 00:08 215 7 gusting 18 15.6
2014-Jul-22 23:58 215 7 gusting 18 15.0
2014-Jul-22 23:38 179 6 gusting 14 15.0
2014-Jul-22 23:28 211 6 gusting 18 13.9
2014-Jul-22 23:18 199 2 gusting 13 15.6
2014-Jul-22 23:08 200 8 gusting 17 15.0
2014-Jul-22 22:58 217 2 gusting 14 15.0
2014-Jul-22 22:48 217 6 gusting 13 15.0
2014-Jul-22 22:38 216 4 gusting 15 15.0
2014-Jul-22 22:28 243 2 gusting 17 15.0
2014-Jul-22 22:18 240 2 gusting 10 15.0
2014-Jul-22 21:58 251 2 gusting 10 14.4
2014-Jul-22 21:38 261 0 gusting 7 13.9
2014-Jul-22 21:18 263 12.8
2014-Jul-22 21:08 288 12.2
2014-Jul-22 20:58 255 10.6
2014-Jul-22 20:48 261 8.9
2014-Jul-22 20:38 303 0 gusting 1 7.8
2014-Jul-22 20:28 302 7.2
2014-Jul-22 20:18 302 6.7
2014-Jul-22 20:08 304 6.1
2014-Jul-22 19:58 303 5.6
2014-Jul-22 19:48 302 5.0
2014-Jul-22 19:38 301 4.4
2014-Jul-22 19:28 302 4.4
2014-Jul-22 19:18 303 4.4
2014-Jul-22 19:08 301 3.9
2014-Jul-22 18:58 302 3.9
2014-Jul-22 18:48 301 3.9
2014-Jul-22 18:38 304 3.3
2014-Jul-22 18:28 303 3.3
2014-Jul-22 17:58 303 2.8
2014-Jul-22 17:48 301 2.8
2014-Jul-22 17:38 304 2.8
2014-Jul-22 17:28 301 2.8
2014-Jul-22 17:18 303 2.8
2014-Jul-22 17:08 305 2.8
2014-Jul-22 16:58 329 2.8
2014-Jul-22 16:48 331 3.3
2014-Jul-22 16:18 301 3.3
2014-Jul-22 16:08 303 3.3
2014-Jul-22 15:58 301 3.3
2014-Jul-22 15:48 302 2.8
2014-Jul-22 15:38 302 2.8
2014-Jul-22 15:28 273 2.8
2014-Jul-22 15:18 217 2.8
2014-Jul-22 15:08 216 2.2
2014-Jul-22 14:58 216 2.8
2014-Jul-22 14:48 215 2.8
2014-Jul-22 14:38 215 2.8
2014-Jul-22 14:28 215 2.8
2014-Jul-22 14:18 216 2.8
2014-Jul-22 14:08 215 2.8
2014-Jul-22 13:58 217 2.8
2014-Jul-22 13:48 215 2.8
2014-Jul-22 13:38 216 2.2
2014-Jul-22 13:28 215 2.2
2014-Jul-22 13:08 216 2.2
2014-Jul-22 12:58 215 2.8
2014-Jul-22 12:48 216 2.2
2014-Jul-22 12:38 218 2.2
2014-Jul-22 12:28 216 2.2
2014-Jul-22 12:18 216 2.2
2014-Jul-22 12:08 215 2.2
2014-Jul-22 11:58 216 2.2
2014-Jul-22 11:48 216 2.8
2014-Jul-22 11:38 215 2.8
2014-Jul-22 11:28 216 2.8
2014-Jul-22 11:18 214 2.8
2014-Jul-22 11:08 215 2.8
2014-Jul-22 10:58 215 2.8
2014-Jul-22 10:48 216 2.8
2014-Jul-22 10:38 216 2.8
2014-Jul-22 10:28 215 2.8
2014-Jul-22 10:18 216 2.8
2014-Jul-22 10:08 215 2.8
2014-Jul-22 09:58 216 2.8
2014-Jul-22 09:28 215 3.3
2014-Jul-22 09:18 216 3.3
2014-Jul-22 09:08 215 3.3
2014-Jul-22 08:58 216 3.9
2014-Jul-22 08:48 215 3.9
2014-Jul-22 08:38 216 3.9
2014-Jul-22 08:28 217 4.4
2014-Jul-22 08:18 216 4.4
2014-Jul-22 08:08 216 4.4
2014-Jul-22 07:58 217 4.4
2014-Jul-22 07:48 216 4.4
2014-Jul-22 07:38 215 4.4
2014-Jul-22 07:28 215 5.0
2014-Jul-22 07:18 216 5.0
2014-Jul-22 07:08 215 5.0
2014-Jul-22 06:58 215 5.6
2014-Jul-22 06:48 216 5.6
2014-Jul-22 06:38 216 5.6
2014-Jul-22 06:28 214 6.1
2014-Jul-22 06:18 214 6.7
2014-Jul-22 06:08 215 7.2
2014-Jul-22 05:58 217 7.2
2014-Jul-22 05:48 220 7.2
2014-Jul-22 05:38 241 7.2
2014-Jul-22 05:28 239 7.8
2014-Jul-22 05:18 241 7.8
2014-Jul-22 05:08 239 8.3
2014-Jul-22 04:58 239 8.9
2014-Jul-22 04:48 227 0 gusting 7 8.9
2014-Jul-22 04:38 221 0 gusting 10 9.4
2014-Jul-22 04:28 221 0 gusting 7 9.4
2014-Jul-22 04:18 208 2 gusting 8 9.4
2014-Jul-22 04:08 192 0 gusting 12 9.4
2014-Jul-22 03:58 223 3 gusting 12 10.0
2014-Jul-22 03:48 186 2 gusting 8 10.6
2014-Jul-22 03:38 167 0 gusting 6 10.0
2014-Jul-22 03:28 218 2 gusting 8 10.0
2014-Jul-22 03:08 213 4 gusting 13 10.6
2014-Jul-22 02:58 182 1 gusting 10 11.1
2014-Jul-22 02:48 258 4 gusting 12 11.1
2014-Jul-22 02:28 260 2 gusting 7 11.1
2014-Jul-22 02:18 246 2 gusting 10 11.1
2014-Jul-22 01:28 204 0 gusting 10 10.6
2014-Jul-22 01:18 207 2 gusting 11 10.6
2014-Jul-22 01:08 213 0 gusting 10 10.6
2014-Jul-22 00:58 225 0 gusting 10 10.6
2014-Jul-22 00:28 208 11.1
2014-Jul-22 00:18 219 11.1
2014-Jul-22 00:08 226 8.9
2014-Jul-21 23:58 220 8.3
2014-Jul-21 23:48 213 5 gusting 11 8.9
2014-Jul-21 23:38 271 9.4
2014-Jul-21 23:28 276 10.6
2014-Jul-21 23:08 274 10.0
2014-Jul-21 22:58 235 10.0
2014-Jul-21 22:48 271 9.4
2014-Jul-21 22:38 266 10.0
2014-Jul-21 22:28 261 10.0
2014-Jul-21 22:18 218 8.9
2014-Jul-21 22:08 200 7.2
2014-Jul-21 21:48 208 1 gusting 6 8.3
2014-Jul-21 21:38 176 0 gusting 1 9.4
2014-Jul-21 21:28 206 8.3
2014-Jul-21 21:18 206 7.2
2014-Jul-21 21:08 206 5.6
2014-Jul-21 20:58 130 4 gusting 10 6.1
2014-Jul-21 20:48 260 6.7
2014-Jul-21 20:38 246 6.7
2014-Jul-21 20:28 286 6.1
2014-Jul-21 20:18 221 5.6
2014-Jul-21 20:08 197 5.0
2014-Jul-21 19:58 196 5.0
2014-Jul-21 19:48 205 5.0
2014-Jul-21 19:38 197 0 gusting 5 4.4
2014-Jul-21 19:28 175 4.4
2014-Jul-21 19:18 171 4.4
2014-Jul-21 18:58 178 4.4
2014-Jul-21 18:48 182 5.0
2014-Jul-21 18:38 188 0 gusting 6 5.0
2014-Jul-21 18:28 189 1 gusting 10 5.0
2014-Jul-21 18:18 188 5 gusting 12 5.0
2014-Jul-21 18:08 192 4.4
2014-Jul-21 17:58 202 1 gusting 6 4.4
2014-Jul-21 17:48 215 3.9
2014-Jul-21 17:28 219 4.4
2014-Jul-21 17:18 232 4.4
2014-Jul-21 17:08 224 4.4
2014-Jul-21 16:58 217 4.4
2014-Jul-21 16:48 235 4.4
2014-Jul-21 16:38 222 4.4
2014-Jul-21 16:28 206 5.0
2014-Jul-21 16:18 226 4.4
2014-Jul-21 16:08 199 5.0
2014-Jul-21 15:58 175 0 gusting 10 5.0
2014-Jul-21 15:38 199 0 gusting 6 5.0
2014-Jul-21 15:28 218 0 gusting 7 5.0
2014-Jul-21 14:58 223 4 gusting 10 5.0
2014-Jul-21 14:48 173 4 gusting 12 5.0
2014-Jul-21 14:28 187 2 gusting 12 5.6
2014-Jul-21 14:18 183 7 gusting 13 5.6
2014-Jul-21 14:08 209 0 gusting 13 5.6
2014-Jul-21 13:58 202 6 gusting 13 5.6
2014-Jul-21 13:48 214 4 gusting 10 5.6
2014-Jul-21 13:38 157 4 gusting 10 5.6
2014-Jul-21 13:28 156 7 gusting 15 5.6
2014-Jul-21 13:18 160 7 gusting 17 6.1
2014-Jul-21 13:08 180 6 gusting 14 6.7
2014-Jul-21 12:58 185 10 gusting 20 7.2
2014-Jul-21 12:48 249 6.7
2014-Jul-21 12:38 245 6.7
2014-Jul-21 12:28 239 7.2
2014-Jul-21 12:18 247 1 gusting 11 7.2
2014-Jul-21 12:08 279 0 gusting 1 7.8
2014-Jul-21 11:58 250 7.8
2014-Jul-21 11:48 244 7.8
2014-Jul-21 11:38 252 7.8
2014-Jul-21 11:18 248 7.8
2014-Jul-21 11:08 216 2 gusting 13 7.8
2014-Jul-21 10:58 202 4 gusting 19 8.3
2014-Jul-21 10:48 231 3 gusting 12 8.9
2014-Jul-21 10:18 256 8.9
2014-Jul-21 10:08 226 1 gusting 7 8.9
2014-Jul-21 09:58 305 4 gusting 10 8.9
2014-Jul-21 09:38 241 2 gusting 11 8.3
2014-Jul-21 09:28 241 8.9
2014-Jul-21 09:18 223 2 gusting 10 8.9
2014-Jul-21 09:08 247 5 gusting 14 8.9
2014-Jul-21 08:58 234 4 gusting 13 8.9
2014-Jul-21 08:48 307 7 gusting 17 8.9
2014-Jul-21 08:38 234 5 gusting 18 8.9
2014-Jul-21 08:28 233 6 gusting 13 8.9
2014-Jul-21 08:18 261 6 gusting 13 8.9
2014-Jul-21 08:08 258 6 gusting 15 8.9
2014-Jul-21 07:58 261 6 gusting 14 8.9
2014-Jul-21 07:48 243 3 gusting 7 8.3
2014-Jul-21 07:38 288 0 gusting 11 8.3
2014-Jul-21 07:28 232 2 gusting 8 8.3
2014-Jul-21 07:18 253 0 gusting 10 8.3
2014-Jul-21 07:08 257 0 gusting 13 8.9
2014-Jul-21 06:58 230 6 gusting 17 8.3
2014-Jul-21 06:48 302 0 gusting 10 8.3
2014-Jul-21 06:38 251 7.8
2014-Jul-21 06:28 225 7.8
2014-Jul-21 06:18 258 7.8
2014-Jul-21 06:08 267 8.3
2014-Jul-21 05:38 251 0 gusting 12 8.9
2014-Jul-21 05:28 210 2 gusting 12 8.9
2014-Jul-21 05:18 201 1 gusting 17 8.9
2014-Jul-21 05:08 229 4 gusting 11 9.4